Toledo Metcalf, OH

7:16 PM EDT on April 25, 2018 (GMT -0400)
Metcalf

Weather History for KTDZ - January, 2014

Change the Weather History Date:

Sunday, January 5, 2014

  Actual Average (KTOL) Record (KTOL)
Temperature  
Mean Temperature 29 °F -  
Max Temperature 35 °F 31 °F 60 °F (1997)
Min Temperature 21 °F 15 °F -10 °F (1884)
Degree Days  
Heating Degree Days 36    
Moisture  
Dew Point 28 °F    
Average Humidity 87    
Maximum Humidity 93    
Minimum Humidity 64    
Precipitation  
Precipitation 0.49 in - - ()
Sea Level Pressure  
Sea Level Pressure 29.84 in    
Wind  
Wind Speed 8 mph (East)    
Max Wind Speed 26 mph    
Max Gust Speed 34 mph    
Visibility 2 miles    
Events Fog , Snow    
Averages and records for this station are not official NWS values.
T = Trace of Precipitation, MM = Missing Value Source: NWS Daily Summary

Daily Weather History Graph

Daily Weather History Graph

Search for Another Location

Airport or City:

Astronomy

Jan. 05, 2014 Rise Set
Actual Time 8:00 AM EST 5:18 PM EST
Civil Twilight 7:29 AM EST 5:49 PM EST
Nautical Twilight 6:54 AM EST 6:24 PM EST
Astronomical Twilight 6:21 AM EST 6:57 PM EST
Moon 10:37 AM EST (1/5) 10:49 PM EST (1/5)
Length of Visible Light 10h 19m
Length of Day
9h 17m
Waxing Crescent, 24% of the Moon is Illuminated
Jan 5
Waxing Crescent
Jan 7
First Quarter
Jan 15
Full
Jan 24
Last Quarter
Jan 30
New

Hourly Weather History & Observations

Time (EST) Temp. Windchill Dew Point Humidity Pressure Visibility Wind Dir Wind Speed Gust Speed Precip Events Conditions
12:53 AM 34.0 °F 27.2 °F 23.0 °F 64% 30.06 in 10.0 mi SW 8.1 mph - N/A   Overcast
1:53 AM 35.1 °F 27.9 °F 25.0 °F 67% 30.06 in 10.0 mi SSW 9.2 mph - N/A   Overcast
2:51 AM 33.8 °F 25.8 °F 28.4 °F 81% 30.05 in 2.5 mi SW 10.4 mph - 0.00 in Snow Light Snow
2:52 AM 33.1 °F 24.9 °F 28.0 °F 82% 30.07 in 2.0 mi SW 10.4 mph - 0.00 in Snow Light Snow
3:04 AM 33.8 °F 27.0 °F 28.4 °F 81% 30.05 in 3.0 mi SW 8.1 mph - 0.00 in Snow Light Snow
3:53 AM 32.0 °F - 28.0 °F 85% 30.05 in 7.0 mi Calm Calm - 0.00 in   Overcast
4:53 AM 32.0 °F 28.7 °F 28.0 °F 85% 30.03 in 7.0 mi SE 3.5 mph - N/A   Overcast
5:53 AM 32.0 °F 28.7 °F 28.0 °F 85% 30.02 in 10.0 mi SE 3.5 mph - N/A   Overcast
6:53 AM 32.0 °F - 28.0 °F 85% 30.02 in 6.0 mi Calm Calm - N/A   Overcast
7:53 AM 30.9 °F 26.2 °F 28.0 °F 89% 30.02 in 6.0 mi ESE 4.6 mph - 0.00 in   Overcast
8:15 AM 30.2 °F 25.4 °F 28.4 °F 93% 30.01 in 1.8 mi SE 4.6 mph - 0.01 in Snow Light Snow
8:29 AM 32.0 °F 26.4 °F 28.4 °F 87% 30.01 in 1.0 mi SE 5.8 mph - 0.01 in Snow Light Snow
8:40 AM 30.2 °F 25.4 °F 28.4 °F 93% 30.01 in 0.8 mi SE 4.6 mph - 0.02 in Snow Light Snow
8:53 AM 32.0 °F 27.5 °F 28.9 °F 88% 30.04 in 0.8 mi SE 4.6 mph - 0.02 in Snow Light Snow
9:01 AM 32.0 °F 27.5 °F 28.4 °F 87% 30.01 in 0.5 mi SE 4.6 mph - 0.01 in Fog , Snow Light Snow
9:19 AM 32.0 °F 26.4 °F 30.2 °F 93% 30.01 in 0.5 mi SSE 5.8 mph - 0.02 in Fog , Snow Snow
9:53 AM 32.0 °F 24.8 °F 30.0 °F 92% 30.01 in 0.5 mi SSE 8.1 mph - 0.03 in Fog , Snow Snow
10:16 AM 32.0 °F 24.8 °F 30.2 °F 93% 29.98 in 0.5 mi SSE 8.1 mph - 0.01 in Fog , Snow Snow
10:53 AM 32.0 °F 24.8 °F 30.0 °F 92% 29.98 in 0.8 mi SSE 8.1 mph - 0.01 in Snow Light Snow
11:00 AM 32.0 °F 25.6 °F 30.2 °F 93% 29.96 in 1.0 mi SSE 6.9 mph - 0.00 in Snow Light Snow
11:07 AM 33.8 °F 27.7 °F 30.2 °F 87% 29.96 in 1.2 mi SSE 6.9 mph - 0.00 in Snow Light Snow
11:36 AM 33.8 °F 30.8 °F 30.2 °F 87% 29.93 in 1.2 mi SE 3.5 mph - 0.00 in Snow Light Snow
11:53 AM 33.1 °F - 30.0 °F 89% 29.94 in 2.0 mi Calm Calm - 0.00 in   Overcast
12:01 PM 33.8 °F - 30.2 °F 87% 29.91 in 1.2 mi Calm Calm - 0.00 in Snow Light Snow
12:10 PM 33.8 °F 30.8 °F 30.2 °F 87% 29.90 in 1.0 mi SE 3.5 mph - 0.00 in Snow Light Snow
12:17 PM 33.8 °F - 30.2 °F 87% 29.90 in 1.0 mi Calm Calm - 0.01 in Snow Light Snow
12:30 PM 33.8 °F 30.8 °F 30.2 °F 87% 29.87 in 0.8 mi East 3.5 mph - 0.01 in Snow Light Snow
12:49 PM 33.8 °F 30.8 °F 30.2 °F 87% 29.85 in 0.5 mi NE 3.5 mph - 0.02 in Fog , Snow Light Snow
12:50 PM 33.1 °F - 30.0 °F 89% 29.87 in 0.5 mi Calm Calm - 0.02 in Fog , Snow Light Snow
1:20 PM 33.8 °F 29.6 °F 30.2 °F 87% 29.80 in 0.8 mi NE 4.6 mph - 0.01 in Snow Light Snow
1:53 PM 33.1 °F 27.7 °F 30.0 °F 89% 29.79 in 1.0 mi ENE 5.8 mph - 0.02 in Snow Light Snow
2:06 PM 33.8 °F 27.7 °F 30.2 °F 87% 29.77 in 0.8 mi East 6.9 mph - 0.00 in Snow Light Snow
2:53 PM 32.0 °F 26.4 °F 30.0 °F 92% 29.76 in 0.8 mi ENE 5.8 mph - 0.02 in Snow Light Snow
3:49 PM 30.2 °F 19.3 °F 28.4 °F 93% 29.68 in 0.5 mi East 15.0 mph 20.7 mph 0.03 in Fog , Snow Snow
3:53 PM 30.0 °F 20.5 °F 28.0 °F 92% 29.70 in 0.2 mi East 11.5 mph 20.7 mph 0.03 in Fog , Snow Snow
4:53 PM 30.9 °F 25.2 °F 28.9 °F 92% 29.72 in 0.2 mi NNE 5.8 mph - 0.11 in Fog , Snow Heavy Snow
5:53 PM 30.0 °F 22.4 °F 28.0 °F 92% 29.65 in 0.5 mi NNE 8.1 mph - 0.09 in Fog , Snow Snow
6:53 PM 30.0 °F 21.1 °F 28.0 °F 92% 29.62 in 0.8 mi NNE 10.4 mph - 0.06 in Snow Light Snow
7:53 PM 30.9 °F 22.2 °F 28.0 °F 89% 29.60 in 0.5 mi North 10.4 mph - 0.03 in Fog , Snow Snow
8:53 PM 28.9 °F 18.2 °F 27.0 °F 92% 29.53 in 0.8 mi North 13.8 mph 21.9 mph 0.01 in Snow Light Snow
9:23 PM 28.4 °F 17.0 °F 26.6 °F 93% 29.51 in 1.0 mi NNW 15.0 mph - 0.01 in Snow Light Snow
9:31 PM 28.4 °F 17.0 °F 24.8 °F 86% 29.51 in 0.8 mi NNW 15.0 mph - 0.01 in Snow Light Snow
9:53 PM 27.0 °F 14.7 °F 25.0 °F 92% 29.54 in 0.5 mi NNW 16.1 mph 24.2 mph 0.02 in Fog , Snow Snow
10:53 PM 26.1 °F 13.6 °F 23.0 °F 88% 29.52 in 0.8 mi NNW 16.1 mph 27.6 mph 0.01 in Snow Light Snow
11:16 PM 24.8 °F 10.3 °F 21.2 °F 86% 29.52 in 0.5 mi NW 20.7 mph 31.1 mph 0.00 in Fog , Snow Snow
11:31 PM 23.0 °F 7.6 °F 19.4 °F 86% 29.53 in 0.8 mi NW 21.9 mph 28.8 mph 0.01 in Snow Light Snow
11:36 PM 23.0 °F 6.6 °F 19.4 °F 86% 29.53 in 1.0 mi NNW 25.3 mph 31.1 mph 0.01 in Snow Light Snow
11:45 PM 23.0 °F 6.6 °F 19.4 °F 86% 29.53 in 1.5 mi NW 25.3 mph 32.2 mph 0.01 in Snow Light Snow
11:53 PM 21.9 °F 4.8 °F 18.0 °F 85% 29.57 in 1.8 mi NW 26.5 mph 34.5 mph 0.01 in Snow Light Snow